Time,TemperatureF,DewpointF,PressureIn,WindDirection,WindDirectionDegrees,WindSpeedMPH,WindSpeedGustMPH,Humidity,HourlyPrecipIn,Conditions,Clouds,dailyrainin,SoftwareType,DateUTC
2013-07-12 00:01:00,65.8,62.1,29.96,North,5,1.1,4.6,88,0.00,SCT,,0.00,WeatherDisplay:10.37,2013-07-12 04:01:00,
2013-07-12 00:02:00,65.7,62.4,29.96,North,355,0.8,5.8,89,0.00,BKN,,0.00,WeatherDisplay:10.37,2013-07-12 04:02:00,
2013-07-12 00:07:00,65.6,61.9,29.96,North,360,3.5,4.6,88,0.00,BKN,,0.00,WeatherDisplay:10.37,2013-07-12 04:07:00,
2013-07-12 00:12:00,65.5,61.9,29.96,North,355,3.4,5.8,88,0.00,BKN,,0.00,WeatherDisplay:10.37,2013-07-12 04:12:00,
2013-07-12 00:17:00,65.3,62.0,29.96,North,9,2.0,6.0,89,0.00,BKN,,0.00,WeatherDisplay:10.37,2013-07-12 04:17:00,
2013-07-12 00:22:00,65.3,62.0,29.96,North,5,0.5,11.5,89,0.00,BKN,,0.00,WeatherDisplay:10.37,2013-07-12 04:22:00,
2013-07-12 00:27:00,65.2,61.9,29.96,NNW,337,3.7,6.9,89,0.00,BKN,,0.00,WeatherDisplay:10.37,2013-07-12 04:27:00,
2013-07-12 00:33:00,65.1,61.8,29.96,NW,326,4.6,6.9,89,0.00,BKN,,0.00,WeatherDisplay:10.37,2013-07-12 04:33:00,
2013-07-12 00:38:00,64.9,61.6,29.96,NNW,327,3.2,6.0,89,0.00,BKN,,0.00,WeatherDisplay:10.37,2013-07-12 04:38:00,
2013-07-12 00:43:00,64.8,61.5,29.96,North,360,1.8,6.9,89,0.00,BKN,,0.00,WeatherDisplay:10.37,2013-07-12 04:43:00,
2013-07-12 00:48:00,64.6,61.6,29.96,North,355,2.5,3.5,90,0.00,BKN,,0.00,WeatherDisplay:10.37,2013-07-12 04:48:00,
2013-07-12 00:53:00,64.5,61.5,29.96,NNW,348,2.2,4.0,90,0.00,BKN,,0.00,WeatherDisplay:10.37,2013-07-12 04:53:00,
2013-07-12 00:58:00,64.5,61.5,29.97,North,351,0.3,4.0,90,0.00,BKN,,0.00,WeatherDisplay:10.37,2013-07-12 04:58:00,
2013-07-12 01:03:00,64.4,61.4,29.97,North,360,2.5,3.0,90,0.00,BKN,,0.00,WeatherDisplay:10.37,2013-07-12 05:03:00,
2013-07-12 01:08:00,64.5,61.5,29.96,North,360,0.1,1.2,90,0.00,BKN,,0.00,WeatherDisplay:10.37,2013-07-12 05:08:00,
2013-07-12 01:13:00,64.5,61.5,29.96,North,360,0.0,2.3,90,0.00,SCT,,0.00,WeatherDisplay:10.37,2013-07-12 05:13:00,
2013-07-12 01:18:00,64.5,61.8,29.96,NNE,13,0.8,3.5,91,0.00,SCT,,0.00,WeatherDisplay:10.37,2013-07-12 05:18:00,
2013-07-12 01:23:00,64.6,61.9,29.96,North,360,0.3,3.5,91,0.00,SCT,,0.00,WeatherDisplay:10.37,2013-07-12 05:23:00,
2013-07-12 01:28:00,64.6,61.9,29.97,North,349,0.5,5.0,91,0.00,SCT,,0.00,WeatherDisplay:10.37,2013-07-12 05:28:00,
2013-07-12 01:33:00,64.6,61.9,29.97,North,360,0.0,3.5,91,0.00,SCT,,0.00,WeatherDisplay:10.37,2013-07-12 05:33:00,
2013-07-12 01:38:00,64.6,61.9,29.97,North,360,0.0,3.5,91,0.00,SCT,,0.00,WeatherDisplay:10.37,2013-07-12 05:38:00,
2013-07-12 01:44:00,64.6,61.9,29.97,North,360,0.0,0.0,91,0.00,SCT,,0.00,WeatherDisplay:10.37,2013-07-12 05:44:00,
2013-07-12 01:49:00,64.6,61.9,29.97,North,5,0.0,0.0,91,0.00,SCT,,0.00,WeatherDisplay:10.37,2013-07-12 05:49:00,
2013-07-12 01:54:00,64.5,61.5,29.97,NE,35,0.0,0.0,90,0.00,SCT,,0.00,WeatherDisplay:10.37,2013-07-12 05:54:00,
2013-07-12 01:59:00,64.5,61.5,29.98,WNW,302,0.6,4.6,90,0.00,SCT,,0.00,WeatherDisplay:10.37,2013-07-12 05:59:00,
2013-07-12 02:04:00,64.5,61.5,29.97,North,355,1.0,3.5,90,0.00,SCT,,0.00,WeatherDisplay:10.37,2013-07-12 06:04:00,
2013-07-12 02:09:00,64.4,61.4,29.97,North,355,0.0,1.0,90,0.00,SCT,,0.00,WeatherDisplay:10.37,2013-07-12 06:09:00,
2013-07-12 02:14:00,64.4,61.4,29.97,NW,323,0.9,3.0,90,0.00,SCT,,0.00,WeatherDisplay:10.37,2013-07-12 06:14:00,
2013-07-12 02:19:00,64.3,61.3,29.97,NNW,328,0.0,0.0,90,0.00,SCT,,0.00,WeatherDisplay:10.37,2013-07-12 06:19:00,
2013-07-12 02:24:00,64.3,61.3,29.97,NNW,328,0.0,0.0,90,0.00,SCT,,0.00,WeatherDisplay:10.37,2013-07-12 06:24:00,
2013-07-12 02:29:00,64.2,61.2,29.98,North,350,0.7,1.0,90,0.00,SCT,,0.00,WeatherDisplay:10.37,2013-07-12 06:29:00,
2013-07-12 02:34:00,64.2,61.2,29.98,North,350,0.0,1.2,90,0.00,SCT,,0.00,WeatherDisplay:10.37,2013-07-12 06:34:00,
2013-07-12 02:40:00,64.1,61.1,29.98,North,350,0.0,3.5,90,0.00,SCT,,0.00,WeatherDisplay:10.37,2013-07-12 06:40:00,
2013-07-12 02:45:00,64.0,61.0,29.98,North,355,1.6,4.6,90,0.00,SCT,,0.00,WeatherDisplay:10.37,2013-07-12 06:45:00,
2013-07-12 02:50:00,64.0,61.0,29.98,North,5,0.5,2.3,90,0.00,SCT,,0.00,WeatherDisplay:10.37,2013-07-12 06:50:00,
2013-07-12 02:55:00,63.9,60.9,29.98,North,355,1.0,3.0,90,0.00,SCT,,0.00,WeatherDisplay:10.37,2013-07-12 06:55:00,
2013-07-12 03:00:00,63.8,60.8,29.98,NNW,340,2.0,3.5,90,0.00,SCT,,0.00,WeatherDisplay:10.37,2013-07-12 07:00:00,
2013-07-12 03:05:00,63.6,60.9,29.98,North,355,1.7,3.5,91,0.00,SCT,,0.00,WeatherDisplay:10.37,2013-07-12 07:05:00,
2013-07-12 03:10:00,63.5,60.8,29.98,North,360,0.0,1.2,91,0.00,SCT,,0.00,WeatherDisplay:10.37,2013-07-12 07:10:00,
2013-07-12 03:15:00,63.4,60.7,29.98,North,5,1.1,3.5,91,0.00,BKN,,0.00,WeatherDisplay:10.37,2013-07-12 07:15:00,
2013-07-12 03:21:00,63.3,60.6,29.98,North,5,0.7,3.5,91,0.00,BKN,,0.00,WeatherDisplay:10.37,2013-07-12 07:21:00,
2013-07-12 03:26:00,63.2,60.5,29.98,NNE,22,0.5,3.5,91,0.00,BKN,,0.00,WeatherDisplay:10.37,2013-07-12 07:26:00,
2013-07-12 03:31:00,63.0,60.3,29.99,North,355,2.1,3.5,91,0.00,BKN,,0.00,WeatherDisplay:10.37,2013-07-12 07:31:00,
2013-07-12 03:36:00,62.9,60.5,29.99,NNW,327,0.8,3.0,92,0.00,BKN,,0.00,WeatherDisplay:10.37,2013-07-12 07:36:00,
2013-07-12 03:41:00,62.7,60.3,29.99,NNW,338,2.0,3.5,92,0.00,BKN,,0.00,WeatherDisplay:10.37,2013-07-12 07:41:00,
2013-07-12 03:46:00,62.6,60.2,29.99,NW,317,1.8,3.5,92,0.00,BKN,,0.00,WeatherDisplay:10.37,2013-07-12 07:46:00,
2013-07-12 03:51:00,62.5,60.1,29.99,North,350,1.9,3.5,92,0.00,BKN,,0.00,WeatherDisplay:10.37,2013-07-12 07:51:00,
2013-07-12 03:56:00,62.4,60.3,29.99,North,360,0.4,2.3,93,0.00,BKN,,0.00,WeatherDisplay:10.37,2013-07-12 07:56:00,
2013-07-12 04:01:00,62.3,60.2,29.99,NNW,333,3.1,4.6,93,0.00,BKN,,0.00,WeatherDisplay:10.37,2013-07-12 08:01:00,
2013-07-12 04:06:00,62.2,60.2,29.99,North,355,0.9,3.5,93,0.00,BKN,,0.00,WeatherDisplay:10.37,2013-07-12 08:06:00,
2013-07-12 04:11:00,62.0,60.0,29.99,NNE,13,0.8,5.0,93,0.00,BKN,,0.00,WeatherDisplay:10.37,2013-07-12 08:11:00,
2013-07-12 04:16:00,61.9,59.9,29.99,NNW,339,1.0,3.5,93,0.00,BKN,,0.00,WeatherDisplay:10.37,2013-07-12 08:16:00,
2013-07-12 04:22:00,61.8,59.8,30.00,NNE,15,1.1,3.5,93,0.00,BKN,,0.00,WeatherDisplay:10.37,2013-07-12 08:22:00,
2013-07-12 04:27:00,61.7,59.7,30.00,North,360,1.7,2.3,93,0.00,BKN,,0.00,WeatherDisplay:10.37,2013-07-12 08:27:00,
2013-07-12 04:32:00,61.7,60.0,30.01,North,355,0.5,3.0,94,0.00,BKN,,0.00,WeatherDisplay:10.37,2013-07-12 08:32:00,
2013-07-12 04:37:00,61.7,60.0,30.01,NNW,348,2.1,5.8,94,0.00,BKN,,0.00,WeatherDisplay:10.37,2013-07-12 08:37:00,
2013-07-12 04:42:00,61.8,60.1,30.01,NNW,347,1.9,3.5,94,0.00,BKN,,0.00,WeatherDisplay:10.37,2013-07-12 08:42:00,
2013-07-12 04:47:00,61.8,60.1,30.01,NNW,340,1.0,3.5,94,0.00,BKN,,0.00,WeatherDisplay:10.37,2013-07-12 08:47:00,
2013-07-12 04:53:00,61.9,60.5,30.01,NNW,343,1.5,1.5,95,0.00,BKN,,0.00,WeatherDisplay:10.37,2013-07-12 08:53:00,
2013-07-12 04:58:00,62.0,60.6,30.02,North,350,2.0,9.2,95,0.00,BKN,,0.00,WeatherDisplay:10.37,2013-07-12 08:58:00,
2013-07-12 05:03:00,62.1,60.7,30.02,NNW,336,1.9,4.6,95,0.00,BKN,,0.00,WeatherDisplay:10.37,2013-07-12 09:03:00,
2013-07-12 05:08:00,62.2,60.8,30.02,NNW,345,1.0,3.5,95,0.00,BKN,,0.00,WeatherDisplay:10.37,2013-07-12 09:08:00,
2013-07-12 05:13:00,62.2,60.8,30.02,NW,318,1.6,3.5,95,0.00,SCT,,0.00,WeatherDisplay:10.37,2013-07-12 09:13:00,
2013-07-12 05:18:00,62.2,60.8,30.02,North,355,0.0,4.6,95,0.00,SCT,,0.00,WeatherDisplay:10.37,2013-07-12 09:18:00,
2013-07-12 05:23:00,62.2,60.8,30.02,NNW,344,0.0,1.2,95,0.00,SCT,,0.00,WeatherDisplay:10.37,2013-07-12 09:23:00,
2013-07-12 05:28:00,62.1,60.9,30.03,NW,309,0.0,1.2,96,0.00,SCT,,0.00,WeatherDisplay:10.37,2013-07-12 09:28:00,
2013-07-12 05:33:00,62.1,60.9,30.03,NNW,329,0.0,3.5,96,0.00,SCT,,0.00,WeatherDisplay:10.37,2013-07-12 09:33:00,
2013-07-12 05:38:00,62.1,60.9,30.03,NNW,348,0.1,3.5,96,0.00,SCT,,0.00,WeatherDisplay:10.37,2013-07-12 09:38:00,
2013-07-12 05:43:00,62.0,60.8,30.03,NNW,331,0.3,1.2,96,0.00,SCT,,0.00,WeatherDisplay:10.37,2013-07-12 09:43:00,
2013-07-12 05:49:00,62.0,60.8,30.03,NW,319,1.5,3.5,96,0.00,SCT,,0.00,WeatherDisplay:10.37,2013-07-12 09:49:00,
2013-07-12 05:54:00,62.0,60.8,30.03,NNW,331,0.9,3.5,96,0.00,SCT,,0.00,WeatherDisplay:10.37,2013-07-12 09:54:00,
2013-07-12 05:59:00,62.0,60.8,30.04,North,355,1.7,3.5,96,0.00,SCT,,0.00,WeatherDisplay:10.37,2013-07-12 09:59:00,
2013-07-12 06:04:00,62.1,60.9,30.04,North,9,0.0,2.0,96,0.00,OVC,,0.00,WeatherDisplay:10.37,2013-07-12 10:04:00,
2013-07-12 06:09:00,62.1,60.9,30.04,North,5,1.0,3.5,96,0.00,OVC,,0.00,WeatherDisplay:10.37,2013-07-12 10:09:00,
2013-07-12 06:14:00,62.2,61.0,30.04,North,5,0.0,3.5,96,0.00,OVC,,0.00,WeatherDisplay:10.37,2013-07-12 10:14:00,
2013-07-12 06:20:00,62.3,61.1,30.04,North,351,0.5,2.0,96,0.00,OVC,,0.00,WeatherDisplay:10.37,2013-07-12 10:20:00,
2013-07-12 06:25:00,62.3,61.1,30.05,NNW,336,1.0,3.5,96,0.00,OVC,,0.00,WeatherDisplay:10.37,2013-07-12 10:25:00,
2013-07-12 06:30:00,62.4,61.2,30.05,North,349,2.1,3.5,96,0.00,OVC,,0.00,WeatherDisplay:10.37,2013-07-12 10:30:00,
2013-07-12 06:35:00,62.4,61.5,30.05,NNW,331,1.6,3.5,97,0.00,OVC,,0.00,WeatherDisplay:10.37,2013-07-12 10:35:00,
2013-07-12 06:40:00,62.5,61.6,30.05,NNW,330,0.6,2.3,97,0.00,OVC,,0.00,WeatherDisplay:10.37,2013-07-12 10:40:00,
2013-07-12 06:45:00,62.7,61.8,30.05,NNW,334,0.1,0.0,97,0.00,OVC,,0.00,WeatherDisplay:10.37,2013-07-12 10:45:00,
2013-07-12 06:50:00,62.9,62.0,30.05,NNW,348,0.8,1.2,97,0.00,OVC,,0.00,WeatherDisplay:10.37,2013-07-12 10:50:00,
2013-07-12 06:56:00,63.1,62.2,30.05,NNW,333,0.4,4.0,97,0.00,OVC,,0.00,WeatherDisplay:10.37,2013-07-12 10:56:00,
2013-07-12 07:01:00,63.3,62.4,30.06,NNW,348,1.2,3.5,97,0.00,OVC,,0.00,WeatherDisplay:10.37,2013-07-12 11:01:00,
2013-07-12 07:06:00,63.5,62.6,30.06,NNW,327,0.1,1.2,97,0.00,OVC,,0.00,WeatherDisplay:10.37,2013-07-12 11:06:00,
2013-07-12 07:11:00,63.5,62.6,30.06,NNW,338,0.1,1.2,97,0.00,BKN,,0.00,WeatherDisplay:10.37,2013-07-12 11:11:00,
2013-07-12 07:16:00,63.6,62.7,30.06,NNW,339,0.1,3.5,97,0.00,BKN,,0.00,WeatherDisplay:10.37,2013-07-12 11:16:00,
2013-07-12 07:21:00,63.7,62.8,30.06,North,355,1.1,3.0,97,0.00,BKN,,0.00,WeatherDisplay:10.37,2013-07-12 11:21:00,
2013-07-12 07:26:00,63.8,62.9,30.07,NNW,333,0.7,0.0,97,0.00,BKN,,0.00,WeatherDisplay:10.37,2013-07-12 11:26:00,
2013-07-12 07:32:00,63.9,63.0,30.07,North,360,1.6,4.6,97,0.00,BKN,,0.00,WeatherDisplay:10.37,2013-07-12 11:32:00,
2013-07-12 07:37:00,63.9,63.0,30.07,NW,306,0.4,3.5,97,0.00,BKN,,0.00,WeatherDisplay:10.37,2013-07-12 11:37:00,
2013-07-12 07:42:00,63.9,63.0,30.07,WNW,303,0.1,1.2,97,0.00,BKN,,0.00,WeatherDisplay:10.37,2013-07-12 11:42:00,
2013-07-12 07:47:00,64.3,63.4,30.07,WNW,294,1.5,3.5,97,0.00,BKN,,0.00,WeatherDisplay:10.37,2013-07-12 11:47:00,
2013-07-12 07:52:00,64.8,63.9,30.07,NNW,339,2.0,4.6,97,0.00,BKN,,0.00,WeatherDisplay:10.37,2013-07-12 11:52:00,
2013-07-12 07:57:00,65.3,64.1,30.08,North,360,1.3,3.5,96,0.00,BKN,,0.00,WeatherDisplay:10.37,2013-07-12 11:57:00,
2013-07-12 08:02:00,65.9,64.7,30.07,NNW,344,0.2,0.0,96,0.00,BKN,,0.00,WeatherDisplay:10.37,2013-07-12 12:02:00,
2013-07-12 08:07:00,66.5,64.7,30.07,NW,317,1.4,3.5,94,0.00,BKN,,0.00,WeatherDisplay:10.37,2013-07-12 12:07:00,
2013-07-12 08:12:00,67.1,65.0,30.07,NNW,348,2.9,6.9,93,0.00,BKN,,0.00,WeatherDisplay:10.37,2013-07-12 12:12:00,
2013-07-12 08:18:00,67.9,65.5,30.08,NW,312,0.5,4.6,92,0.00,BKN,,0.00,WeatherDisplay:10.37,2013-07-12 12:18:00,
2013-07-12 08:23:00,68.4,65.7,30.07,NNW,330,0.0,3.5,91,0.00,BKN,,0.00,WeatherDisplay:10.37,2013-07-12 12:23:00,
2013-07-12 08:28:00,69.0,65.6,30.08,North,360,2.6,4.6,89,0.00,BKN,,0.00,WeatherDisplay:10.37,2013-07-12 12:28:00,
2013-07-12 08:33:00,69.6,65.9,30.08,North,360,2.5,5.8,88,0.00,BKN,,0.00,WeatherDisplay:10.37,2013-07-12 12:33:00,
2013-07-12 08:38:00,70.4,66.7,30.07,NNW,331,0.5,3.0,88,0.00,BKN,,0.00,WeatherDisplay:10.37,2013-07-12 12:38:00,
2013-07-12 08:43:00,70.8,66.1,30.07,WNW,302,0.4,2.3,85,0.00,BKN,,0.00,WeatherDisplay:10.37,2013-07-12 12:43:00,
2013-07-12 08:48:00,71.2,66.5,30.08,WNW,292,1.5,4.6,85,0.00,BKN,,0.00,WeatherDisplay:10.37,2013-07-12 12:48:00,
2013-07-12 08:53:00,71.4,66.3,30.08,WNW,301,0.1,0.0,84,0.00,BKN,,0.00,WeatherDisplay:10.37,2013-07-12 12:53:00,
2013-07-12 08:59:00,71.7,66.9,30.08,NNW,332,1.8,5.8,85,0.00,BKN,,0.00,WeatherDisplay:10.37,2013-07-12 12:59:00,
2013-07-12 09:04:00,72.0,66.6,30.08,WNW,283,1.6,3.5,83,0.00,BKN,,0.00,WeatherDisplay:10.37,2013-07-12 13:04:00,
2013-07-12 09:09:00,72.2,66.7,30.08,WNW,290,3.2,9.2,83,0.00,BKN,,0.00,WeatherDisplay:10.37,2013-07-12 13:09:00,
2013-07-12 09:14:00,72.4,67.3,30.08,NNW,345,0.4,5.8,84,0.00,BKN,,0.00,WeatherDisplay:10.37,2013-07-12 13:14:00,
2013-07-12 09:19:00,72.6,66.4,30.08,NW,320,2.9,6.9,81,0.00,BKN,,0.00,WeatherDisplay:10.37,2013-07-12 13:19:00,
2013-07-12 09:24:00,72.9,67.1,30.08,NW,308,2.3,4.6,82,0.00,BKN,,0.00,WeatherDisplay:10.37,2013-07-12 13:24:00,
2013-07-12 09:29:00,73.1,66.9,30.08,NW,304,4.6,6.9,81,0.00,BKN,,0.00,WeatherDisplay:10.37,2013-07-12 13:29:00,
2013-07-12 09:34:00,73.2,67.4,30.08,WNW,302,0.7,4.6,82,0.00,BKN,,0.00,WeatherDisplay:10.37,2013-07-12 13:34:00,
2013-07-12 09:39:00,73.1,67.6,30.08,North,5,2.9,4.6,83,0.00,BKN,,0.00,WeatherDisplay:10.37,2013-07-12 13:39:00,
2013-07-12 09:45:00,73.1,67.6,30.08,NNE,14,3.0,5.8,83,0.00,BKN,,0.00,WeatherDisplay:10.37,2013-07-12 13:45:00,
2013-07-12 09:50:00,73.3,67.5,30.08,North,355,3.3,4.6,82,0.00,BKN,,0.00,WeatherDisplay:10.37,2013-07-12 13:50:00,
2013-07-12 09:55:00,73.5,67.7,30.08,North,349,2.5,9.2,82,0.00,BKN,,0.00,WeatherDisplay:10.37,2013-07-12 13:55:00,
2013-07-12 10:00:00,73.9,67.7,30.08,NNE,28,2.1,10.4,81,0.00,BKN,,0.00,WeatherDisplay:10.37,2013-07-12 14:00:00,
2013-07-12 10:05:00,74.3,67.7,30.08,North,5,5.0,9.2,80,0.00,BKN,,0.00,WeatherDisplay:10.37,2013-07-12 14:05:00,
2013-07-12 10:10:00,74.7,68.5,30.08,North,360,0.0,0.0,81,0.00,BKN,,0.00,WeatherDisplay:10.37,2013-07-12 14:10:00,
2013-07-12 10:15:00,75.2,68.2,30.08,NNW,336,0.8,4.6,79,0.00,BKN,,0.00,WeatherDisplay:10.37,2013-07-12 14:15:00,
2013-07-12 10:20:00,75.4,68.4,30.08,NNW,328,1.2,6.9,79,0.00,BKN,,0.00,WeatherDisplay:10.37,2013-07-12 14:20:00,
2013-07-12 10:25:00,75.8,69.9,30.08,NE,36,1.9,4.6,82,0.00,BKN,,0.00,WeatherDisplay:10.37,2013-07-12 14:25:00,
2013-07-12 10:30:00,76.2,69.2,30.08,NW,323,3.2,11.5,79,0.00,BKN,,0.00,WeatherDisplay:10.37,2013-07-12 14:30:00,
2013-07-12 10:35:00,76.4,69.4,30.08,NNW,338,3.0,4.6,79,0.00,BKN,,0.00,WeatherDisplay:10.37,2013-07-12 14:35:00,
2013-07-12 10:41:00,76.6,69.6,30.08,North,360,5.0,10.4,79,0.00,BKN,,0.00,WeatherDisplay:10.37,2013-07-12 14:41:00,
2013-07-12 10:46:00,77.1,70.1,30.08,NNE,13,6.4,9.2,79,0.00,BKN,,0.00,WeatherDisplay:10.37,2013-07-12 14:46:00,
2013-07-12 10:51:00,77.3,69.9,30.08,North,360,4.4,6.9,78,0.00,BKN,,0.00,WeatherDisplay:10.37,2013-07-12 14:51:00,
2013-07-12 10:56:00,77.4,68.9,30.08,WNW,299,3.7,7.0,75,0.00,BKN,,0.00,WeatherDisplay:10.37,2013-07-12 14:56:00,
2013-07-12 11:01:00,77.1,70.1,30.08,WNW,300,1.3,6.9,79,0.00,BKN,,0.00,WeatherDisplay:10.37,2013-07-12 15:01:00,
2013-07-12 11:06:00,76.9,69.5,30.08,WNW,301,1.0,4.6,78,0.00,BKN,,0.00,WeatherDisplay:10.37,2013-07-12 15:06:00,
2013-07-12 11:11:00,77.0,70.0,30.08,North,11,0.7,4.6,79,0.00,BKN,,0.00,WeatherDisplay:10.37,2013-07-12 15:11:00,
2013-07-12 11:17:00,77.6,70.6,30.08,West,265,5.2,5.8,79,0.00,BKN,,0.00,WeatherDisplay:10.37,2013-07-12 15:17:00,
2013-07-12 11:22:00,77.5,69.7,30.08,NW,306,4.8,10.4,77,0.00,BKN,,0.00,WeatherDisplay:10.37,2013-07-12 15:22:00,
2013-07-12 11:27:00,77.5,69.7,30.08,West,269,4.2,6.9,77,0.00,BKN,,0.00,WeatherDisplay:10.37,2013-07-12 15:27:00,
2013-07-12 11:32:00,77.4,70.7,30.08,WNW,297,3.9,9.2,80,0.00,BKN,,0.00,WeatherDisplay:10.37,2013-07-12 15:32:00,
2013-07-12 11:37:00,77.6,70.9,30.08,NNW,335,5.0,6.9,80,0.00,BKN,,0.00,WeatherDisplay:10.37,2013-07-12 15:37:00,
2013-07-12 11:42:00,77.9,70.1,30.08,WSW,251,4.0,6.9,77,0.00,BKN,,0.00,WeatherDisplay:10.37,2013-07-12 15:42:00,
2013-07-12 11:47:00,77.9,70.5,30.08,West,278,4.7,5.8,78,0.00,BKN,,0.00,WeatherDisplay:10.37,2013-07-12 15:47:00,
2013-07-12 11:52:00,78.0,70.6,30.08,NW,310,3.0,4.0,78,0.00,BKN,,0.00,WeatherDisplay:10.37,2013-07-12 15:52:00,
2013-07-12 11:58:00,78.2,71.5,30.08,WNW,300,3.5,12.7,80,0.00,BKN,,0.00,WeatherDisplay:10.37,2013-07-12 15:58:00,
2013-07-12 12:03:00,78.7,72.4,30.07,North,355,4.3,4.3,81,0.00,BKN,,0.00,WeatherDisplay:10.37,2013-07-12 16:03:00,
2013-07-12 12:08:00,78.8,70.2,30.07,WNW,294,1.9,5.8,75,0.00,BKN,,0.00,WeatherDisplay:10.37,2013-07-12 16:08:00,
2013-07-12 12:13:00,79.1,72.0,30.07,West,271,1.4,9.2,79,0.00,BKN,,0.00,WeatherDisplay:10.37,2013-07-12 16:13:00,
2013-07-12 12:18:00,79.2,71.4,30.08,NW,315,1.8,4.6,77,0.00,BKN,,0.00,WeatherDisplay:10.37,2013-07-12 16:18:00,
2013-07-12 12:23:00,78.7,71.6,30.07,NNW,348,0.0,4.6,79,0.00,BKN,,0.00,WeatherDisplay:10.37,2013-07-12 16:23:00,
2013-07-12 12:28:00,78.7,70.9,30.07,NW,317,1.9,6.9,77,0.00,BKN,,0.00,WeatherDisplay:10.37,2013-07-12 16:28:00,
2013-07-12 12:33:00,79.1,71.6,30.07,NNE,15,6.0,10.4,78,0.00,BKN,,0.00,WeatherDisplay:10.37,2013-07-12 16:33:00,
2013-07-12 12:38:00,79.6,71.0,30.07,ENE,59,1.1,9.2,75,0.00,BKN,,0.00,WeatherDisplay:10.37,2013-07-12 16:38:00,
2013-07-12 12:43:00,80.0,72.1,30.07,NW,305,5.0,5.8,77,0.00,BKN,,0.00,WeatherDisplay:10.37,2013-07-12 16:43:00,
2013-07-12 12:49:00,80.1,69.8,30.07,NW,311,2.1,6.9,71,0.00,BKN,,0.00,WeatherDisplay:10.37,2013-07-12 16:49:00,
2013-07-12 12:54:00,79.8,71.9,30.07,WNW,282,3.3,5.8,77,0.00,BKN,,0.00,WeatherDisplay:10.37,2013-07-12 16:54:00,
2013-07-12 12:59:00,79.8,70.4,30.07,North,11,5.0,8.1,73,0.00,BKN,,0.00,WeatherDisplay:10.37,2013-07-12 16:59:00,
2013-07-12 13:04:00,80.3,72.4,30.07,NNW,327,6.1,11.5,77,0.00,BKN,,0.00,WeatherDisplay:10.37,2013-07-12 17:04:00,
2013-07-12 13:09:00,80.8,71.7,30.06,North,10,2.4,9.2,74,0.00,BKN,,0.00,WeatherDisplay:10.37,2013-07-12 17:09:00,
2013-07-12 13:14:00,81.2,71.3,30.07,NNW,342,2.7,5.8,72,0.00,BKN,,0.00,WeatherDisplay:10.37,2013-07-12 17:14:00,
2013-07-12 13:20:00,81.8,73.1,30.07,North,355,8.8,15.0,75,0.00,BKN,,0.00,WeatherDisplay:10.37,2013-07-12 17:20:00,
2013-07-12 13:25:00,81.8,70.6,30.07,North,351,5.1,15.0,69,0.00,BKN,,0.00,WeatherDisplay:10.37,2013-07-12 17:25:00,
2013-07-12 13:30:00,81.4,72.7,30.06,WNW,303,4.2,9.2,75,0.00,BKN,,0.00,WeatherDisplay:10.37,2013-07-12 17:30:00,
2013-07-12 13:35:00,80.9,71.4,30.07,NW,317,0.8,1.2,73,0.00,BKN,,0.00,WeatherDisplay:10.37,2013-07-12 17:35:00,
2013-07-12 13:40:00,80.5,71.0,30.07,WNW,286,3.7,6.9,73,0.00,BKN,,0.00,WeatherDisplay:10.37,2013-07-12 17:40:00,
2013-07-12 13:45:00,80.4,72.5,30.07,NNW,336,2.4,3.5,77,0.00,BKN,,0.00,WeatherDisplay:10.37,2013-07-12 17:45:00,
2013-07-12 13:51:00,80.1,68.2,30.07,NE,39,1.6,5.8,67,0.00,BKN,,0.00,WeatherDisplay:10.37,2013-07-12 17:51:00,
2013-07-12 13:56:00,80.1,70.7,30.07,NNE,15,2.8,9.2,73,0.00,BKN,,0.00,WeatherDisplay:10.37,2013-07-12 17:56:00,
2013-07-12 14:01:00,80.2,69.1,30.07,ENE,64,2.6,6.9,69,0.00,BKN,,0.00,WeatherDisplay:10.37,2013-07-12 18:01:00,
2013-07-12 14:06:00,80.0,68.5,30.07,NNE,26,0.0,5.8,68,0.00,BKN,,0.00,WeatherDisplay:10.37,2013-07-12 18:06:00,
2013-07-12 14:11:00,80.2,71.6,30.07,NNE,14,0.0,0.0,75,0.00,BKN,,0.00,WeatherDisplay:10.37,2013-07-12 18:11:00,
2013-07-12 14:16:00,80.7,70.4,30.07,North,360,0.1,3.5,71,0.00,BKN,,0.00,WeatherDisplay:10.37,2013-07-12 18:16:00,
2013-07-12 14:21:00,81.1,70.0,30.07,NE,41,3.3,5.8,69,0.00,BKN,,0.00,WeatherDisplay:10.37,2013-07-12 18:21:00,
2013-07-12 14:26:00,81.0,69.4,30.07,North,9,1.5,3.5,68,0.00,BKN,,0.00,WeatherDisplay:10.37,2013-07-12 18:26:00,
2013-07-12 14:31:00,81.2,68.3,30.07,NNE,28,0.0,2.3,65,0.00,BKN,,0.00,WeatherDisplay:10.37,2013-07-12 18:31:00,
2013-07-12 14:36:00,81.7,69.7,30.07,NE,51,1.4,5.8,67,0.00,BKN,,0.00,WeatherDisplay:10.37,2013-07-12 18:36:00,
2013-07-12 14:41:00,82.3,71.1,30.07,North,350,1.2,4.6,69,0.00,BKN,,0.00,WeatherDisplay:10.37,2013-07-12 18:41:00,
2013-07-12 14:47:00,82.8,72.4,30.07,NNW,344,0.1,4.0,71,0.00,BKN,,0.00,WeatherDisplay:10.37,2013-07-12 18:47:00,
2013-07-12 14:52:00,83.4,71.7,30.06,NNE,24,0.4,3.5,68,0.00,BKN,,0.00,WeatherDisplay:10.37,2013-07-12 18:52:00,
2013-07-12 14:57:00,83.6,71.0,30.07,NNE,28,0.1,3.5,66,0.00,BKN,,0.00,WeatherDisplay:10.37,2013-07-12 18:57:00,
2013-07-12 15:02:00,83.4,68.5,30.07,East,83,1.9,4.6,61,0.00,BKN,,0.00,WeatherDisplay:10.37,2013-07-12 19:02:00,
2013-07-12 15:07:00,83.3,70.3,30.06,North,11,1.9,9.2,65,0.00,BKN,,0.00,WeatherDisplay:10.37,2013-07-12 19:07:00,
2013-07-12 15:13:00,83.6,72.3,30.06,NE,48,2.0,4.6,69,0.00,BKN,,0.00,WeatherDisplay:10.37,2013-07-12 19:13:00,
2013-07-12 15:18:00,83.8,73.0,30.06,ESE,114,0.0,0.0,70,0.00,BKN,,0.00,WeatherDisplay:10.37,2013-07-12 19:18:00,
2013-07-12 15:23:00,83.7,69.8,30.06,ENE,65,0.0,0.0,63,0.00,BKN,,0.00,WeatherDisplay:10.37,2013-07-12 19:23:00,
2013-07-12 15:28:00,83.6,70.1,30.06,NNE,24,0.0,0.0,64,0.00,BKN,,0.00,WeatherDisplay:10.37,2013-07-12 19:28:00,
2013-07-12 15:33:00,83.2,71.5,30.06,North,355,0.0,0.0,68,0.00,BKN,,0.00,WeatherDisplay:10.37,2013-07-12 19:33:00,
2013-07-12 15:38:00,82.8,70.7,30.07,NNW,345,1.8,5.0,67,0.00,BKN,,0.00,WeatherDisplay:10.37,2013-07-12 19:38:00,
2013-07-12 15:43:00,82.8,71.6,30.06,NW,304,1.3,4.0,69,0.00,BKN,,0.00,WeatherDisplay:10.37,2013-07-12 19:43:00,
2013-07-12 15:49:00,82.8,68.4,30.06,North,5,2.4,5.0,62,0.00,BKN,,0.00,WeatherDisplay:10.37,2013-07-12 19:49:00,
2013-07-12 15:54:00,82.5,69.1,30.06,NE,34,0.1,2.3,64,0.00,BKN,,0.00,WeatherDisplay:10.37,2013-07-12 19:54:00,
2013-07-12 15:59:00,82.1,70.1,30.06,NE,56,2.1,3.5,67,0.00,BKN,,0.00,WeatherDisplay:10.37,2013-07-12 19:59:00,
2013-07-12 16:04:00,81.6,70.0,30.06,ENE,74,0.7,2.3,68,0.00,BKN,,0.00,WeatherDisplay:10.37,2013-07-12 20:04:00,
2013-07-12 16:09:00,81.4,70.7,30.06,NE,39,0.3,3.5,70,0.00,BKN,,0.00,WeatherDisplay:10.37,2013-07-12 20:09:00,
2013-07-12 16:15:00,81.3,71.0,30.06,NNE,15,0.0,1.2,71,0.00,BKN,,0.00,WeatherDisplay:10.37,2013-07-12 20:15:00,
2013-07-12 16:20:00,81.4,70.7,30.06,NNE,33,2.4,3.5,70,0.00,BKN,,0.00,WeatherDisplay:10.37,2013-07-12 20:20:00,
2013-07-12 16:25:00,81.8,71.5,30.06,NNE,15,0.1,2.3,71,0.00,BKN,,0.00,WeatherDisplay:10.37,2013-07-12 20:25:00,
2013-07-12 16:30:00,82.5,72.1,30.06,NNE,15,0.4,5.0,71,0.00,BKN,,0.00,WeatherDisplay:10.37,2013-07-12 20:30:00,
2013-07-12 16:35:00,82.9,72.1,30.06,North,355,0.9,3.5,70,0.00,BKN,,0.00,WeatherDisplay:10.37,2013-07-12 20:35:00,
2013-07-12 16:40:00,82.5,67.2,30.06,NNE,24,1.0,9.2,60,0.00,BKN,,0.00,WeatherDisplay:10.37,2013-07-12 20:40:00,
2013-07-12 16:45:00,82.0,69.5,30.06,ENE,78,0.1,5.8,66,0.00,BKN,,0.00,WeatherDisplay:10.37,2013-07-12 20:45:00,
2013-07-12 16:51:00,81.4,68.5,30.07,NNE,23,0.0,0.0,65,0.00,BKN,,0.00,WeatherDisplay:10.37,2013-07-12 20:51:00,
2013-07-12 16:56:00,81.0,69.4,30.07,ENE,64,0.0,2.0,68,0.00,BKN,,0.00,WeatherDisplay:10.37,2013-07-12 20:56:00,
2013-07-12 17:01:00,80.6,69.5,30.07,NE,49,0.9,3.5,69,0.00,BKN,,0.00,WeatherDisplay:10.37,2013-07-12 21:01:00,
2013-07-12 17:06:00,80.2,69.1,30.07,NE,42,0.9,3.5,69,0.00,BKN,,0.00,WeatherDisplay:10.37,2013-07-12 21:06:00,
2013-07-12 17:11:00,79.8,68.3,30.07,ENE,73,1.5,3.5,68,0.00,BKN,,0.00,WeatherDisplay:10.37,2013-07-12 21:11:00,
2013-07-12 17:16:00,79.6,69.4,30.07,East,82,0.9,3.0,71,0.00,BKN,,0.00,WeatherDisplay:10.37,2013-07-12 21:16:00,
2013-07-12 17:22:00,79.4,69.2,30.07,East,82,0.0,0.0,71,0.00,BKN,,0.00,WeatherDisplay:10.37,2013-07-12 21:22:00,
2013-07-12 17:27:00,79.4,70.0,30.07,East,82,0.0,1.2,73,0.00,BKN,,0.00,WeatherDisplay:10.37,2013-07-12 21:27:00,
2013-07-12 17:32:00,79.5,70.9,30.07,ENE,78,0.1,2.3,75,0.00,BKN,,0.00,WeatherDisplay:10.37,2013-07-12 21:32:00,
2013-07-12 17:37:00,79.5,69.3,30.07,ENE,78,0.0,1.2,71,0.00,BKN,,0.00,WeatherDisplay:10.37,2013-07-12 21:37:00,
2013-07-12 17:42:00,79.4,69.6,30.07,ENE,78,0.0,0.0,72,0.00,BKN,,0.00,WeatherDisplay:10.37,2013-07-12 21:42:00,
2013-07-12 17:47:00,79.4,70.4,30.07,ENE,78,1.6,3.5,74,0.00,BKN,,0.00,WeatherDisplay:10.37,2013-07-12 21:47:00,
2013-07-12 17:52:00,79.3,69.9,30.07,ENE,78,0.7,3.5,73,0.00,BKN,,0.00,WeatherDisplay:10.37,2013-07-12 21:52:00,
2013-07-12 17:58:00,79.2,70.2,30.07,ENE,78,0.1,1.2,74,0.00,BKN,,0.00,WeatherDisplay:10.37,2013-07-12 21:58:00,
2013-07-12 18:03:00,79.1,70.1,30.07,ENE,78,1.7,3.5,74,0.00,BKN,,0.00,WeatherDisplay:10.37,2013-07-12 22:03:00,
2013-07-12 18:08:00,79.1,71.3,30.07,East,80,3.2,3.5,77,0.00,BKN,,0.00,WeatherDisplay:10.37,2013-07-12 22:08:00,
2013-07-12 18:13:00,79.0,71.2,30.07,East,86,0.0,3.5,77,0.00,BKN,,0.00,WeatherDisplay:10.37,2013-07-12 22:13:00,
2013-07-12 18:18:00,78.6,70.0,30.07,ESE,103,0.5,2.3,75,0.00,BKN,,0.00,WeatherDisplay:10.37,2013-07-12 22:18:00,
2013-07-12 18:23:00,78.0,69.8,30.07,ESE,123,1.4,3.5,76,0.00,BKN,,0.00,WeatherDisplay:10.37,2013-07-12 22:23:00,
2013-07-12 18:28:00,77.6,70.2,30.07,SE,141,1.3,2.3,78,0.00,BKN,,0.00,WeatherDisplay:10.37,2013-07-12 22:28:00,
2013-07-12 18:33:00,77.3,69.5,30.07,East,84,1.1,4.6,77,0.00,BKN,,0.00,WeatherDisplay:10.37,2013-07-12 22:33:00,
2013-07-12 18:39:00,76.9,69.1,30.07,ENE,67,1.5,5.8,77,0.00,BKN,,0.00,WeatherDisplay:10.37,2013-07-12 22:39:00,
2013-07-12 18:44:00,76.4,69.4,30.07,ENE,65,2.0,4.6,79,0.00,BKN,,0.00,WeatherDisplay:10.37,2013-07-12 22:44:00,
2013-07-12 18:49:00,76.0,69.4,30.07,ESE,111,0.1,2.3,80,0.00,BKN,,0.00,WeatherDisplay:10.37,2013-07-12 22:49:00,
2013-07-12 18:54:00,75.8,69.6,30.08,ESE,111,0.0,1.2,81,0.00,BKN,,0.00,WeatherDisplay:10.37,2013-07-12 22:54:00,
2013-07-12 18:59:00,75.7,69.8,30.08,SE,126,2.2,3.5,82,0.00,BKN,,0.00,WeatherDisplay:10.37,2013-07-12 22:59:00,
2013-07-12 19:04:00,75.4,69.2,30.08,ESE,121,0.0,3.5,81,0.00,BKN,,0.00,WeatherDisplay:10.37,2013-07-12 23:04:00,
2013-07-12 19:09:00,75.1,68.9,30.08,ESE,121,0.0,0.0,81,0.00,BKN,,0.00,WeatherDisplay:10.37,2013-07-12 23:09:00,
2013-07-12 19:14:00,74.9,68.3,30.08,ESE,121,0.0,0.0,80,0.00,OVC,,0.00,WeatherDisplay:10.37,2013-07-12 23:14:00,
2013-07-12 19:20:00,74.7,68.1,30.08,ESE,121,0.0,0.0,80,0.00,OVC,,0.00,WeatherDisplay:10.37,2013-07-12 23:20:00,
2013-07-12 19:25:00,74.7,68.5,30.08,ESE,121,0.0,0.0,81,0.00,OVC,,0.00,WeatherDisplay:10.37,2013-07-12 23:25:00,
2013-07-12 19:30:00,74.7,68.5,30.08,ESE,121,0.0,0.0,81,0.00,OVC,,0.00,WeatherDisplay:10.37,2013-07-12 23:30:00,
2013-07-12 19:35:00,74.7,68.1,30.08,ESE,121,0.0,0.0,80,0.00,OVC,,0.00,WeatherDisplay:10.37,2013-07-12 23:35:00,
2013-07-12 19:41:00,74.7,68.1,30.09,ESE,121,0.0,0.0,80,0.00,OVC,,0.00,WeatherDisplay:10.37,2013-07-12 23:41:00,
2013-07-12 19:46:00,74.6,68.0,30.09,ESE,121,0.0,0.0,80,0.00,OVC,,0.00,WeatherDisplay:10.37,2013-07-12 23:46:00,
2013-07-12 19:51:00,74.5,67.9,30.09,ESE,121,0.0,0.0,80,0.00,OVC,,0.00,WeatherDisplay:10.37,2013-07-12 23:51:00,
2013-07-12 19:56:00,74.4,67.8,30.09,ESE,121,0.0,0.0,80,0.00,OVC,,0.00,WeatherDisplay:10.37,2013-07-12 23:56:00,
2013-07-12 20:01:00,74.2,67.6,30.09,ESE,121,0.0,0.0,80,0.00,OVC,,0.00,WeatherDisplay:10.37,2013-07-13 00:01:00,
2013-07-12 20:06:00,73.9,67.7,30.09,ESE,121,0.0,0.0,81,0.00,OVC,,0.00,WeatherDisplay:10.37,2013-07-13 00:06:00,
2013-07-12 20:11:00,73.6,67.4,30.09,ESE,121,0.4,2.3,81,0.00,BKN,,0.00,WeatherDisplay:10.37,2013-07-13 00:11:00,
2013-07-12 20:16:00,73.3,67.1,30.09,ESE,121,0.7,2.3,81,0.00,BKN,,0.00,WeatherDisplay:10.37,2013-07-13 00:16:00,
2013-07-12 20:22:00,73.0,67.2,30.09,ESE,121,1.1,3.0,82,0.00,BKN,,0.00,WeatherDisplay:10.37,2013-07-13 00:22:00,
2013-07-12 20:27:00,72.7,66.9,30.09,ESE,121,0.0,1.2,82,0.00,BKN,,0.00,WeatherDisplay:10.37,2013-07-13 00:27:00,
2013-07-12 20:32:00,72.4,66.6,30.09,ESE,113,1.2,3.5,82,0.00,BKN,,0.00,WeatherDisplay:10.37,2013-07-13 00:32:00,
2013-07-12 20:37:00,72.1,66.6,30.10,ESE,121,0.3,3.5,83,0.00,BKN,,0.00,WeatherDisplay:10.37,2013-07-13 00:37:00,
2013-07-12 20:42:00,71.9,66.5,30.10,ESE,121,0.0,0.0,83,0.00,BKN,,0.00,WeatherDisplay:10.37,2013-07-13 00:42:00,
2013-07-12 20:47:00,71.6,66.2,30.10,East,88,2.2,4.6,83,0.00,BKN,,0.00,WeatherDisplay:10.37,2013-07-13 00:47:00,
2013-07-12 20:52:00,71.4,66.3,30.10,East,89,0.6,3.5,84,0.00,BKN,,0.00,WeatherDisplay:10.37,2013-07-13 00:52:00,
2013-07-12 20:57:00,71.3,66.9,30.10,East,89,0.1,1.2,86,0.00,BKN,,0.00,WeatherDisplay:10.37,2013-07-13 00:57:00,
2013-07-12 21:03:00,71.0,66.3,30.10,East,89,0.1,2.0,85,0.00,BKN,,0.00,WeatherDisplay:10.37,2013-07-13 01:03:00,
2013-07-12 21:08:00,70.7,66.0,30.10,East,82,2.3,3.5,85,0.00,BKN,,0.00,WeatherDisplay:10.37,2013-07-13 01:08:00,
2013-07-12 21:13:00,70.6,65.9,30.11,East,86,0.5,3.5,85,0.00,BKN,,0.00,WeatherDisplay:10.37,2013-07-13 01:13:00,
2013-07-12 21:18:00,70.4,65.7,30.11,East,79,0.5,4.6,85,0.00,BKN,,0.00,WeatherDisplay:10.37,2013-07-13 01:18:00,
2013-07-12 21:23:00,70.2,65.5,30.11,East,79,0.2,2.3,85,0.00,BKN,,0.00,WeatherDisplay:10.37,2013-07-13 01:23:00,
2013-07-12 21:29:00,70.1,65.0,30.11,East,79,0.0,0.0,84,0.00,BKN,,0.00,WeatherDisplay:10.37,2013-07-13 01:29:00,
2013-07-12 21:34:00,70.0,65.3,30.12,East,92,0.3,1.2,85,0.00,BKN,,0.00,WeatherDisplay:10.37,2013-07-13 01:34:00,
2013-07-12 21:39:00,69.9,65.2,30.12,East,92,0.2,3.5,85,0.00,BKN,,0.00,WeatherDisplay:10.37,2013-07-13 01:39:00,
2013-07-12 23:25:00,69.3,64.3,30.14,ENE,67,0.0,0.0,84,0.00,BKN,,0.00,WeatherDisplay:10.37,2013-07-13 03:25:00,
2013-07-12 23:30:00,69.3,64.6,30.14,ENE,67,0.0,0.0,85,0.00,BKN,,0.00,WeatherDisplay:10.37,2013-07-13 03:30:00,
2013-07-12 23:35:00,69.2,64.5,30.14,ENE,67,0.0,0.0,85,0.00,BKN,,0.00,WeatherDisplay:10.37,2013-07-13 03:35:00,
2013-07-12 23:40:00,69.0,64.3,30.14,ENE,67,0.1,1.2,85,0.00,BKN,,0.00,WeatherDisplay:10.37,2013-07-13 03:40:00,
2013-07-12 23:46:00,68.8,63.8,30.15,ENE,67,0.0,0.0,84,0.00,BKN,,0.00,WeatherDisplay:10.37,2013-07-13 03:46:00,
2013-07-12 23:51:00,68.6,63.2,30.15,ENE,67,0.0,0.0,83,0.00,BKN,,0.00,WeatherDisplay:10.37,2013-07-13 03:51:00,
2013-07-12 23:56:00,68.6,63.6,30.15,ENE,67,0.0,0.0,84,0.00,BKN,,0.00,WeatherDisplay:10.37,2013-07-13 03:56:00,